Total_Precipitation_Accumulation
0.01 0.00 0.01 0.01 0.01 0.01 0.01 0.03 0.05 0.06 0.06 0.06 0.05 0.05 0.05 0.05 0.05 0.04 0.03 0.04 0.06 0.09 0.13 0.15 0.14 0.16 0.17 0.12 0.04 0.01 0.01 0.01 0.03 0.04 0.05 0.05 0.06 0.07 0.09 0.07 0.05 0.06 0.03
0.01 0.00 0.01 0.01 0.01 0.01 0.01 0.02 0.04 0.05 0.05 0.05 0.05 0.05 0.05 0.05 0.06 0.06 0.05 0.05 0.07 0.09 0.10 0.11 0.11 0.11 0.10 0.05 0.02 0.01 0.01 0.02 0.05 0.08 0.10 0.14 0.15 0.13 0.17 0.19 0.14 0.10 0.03
0.01 0.00 0.00 0.01 0.01 0.01 0.01 0.03 0.04 0.06 0.06 0.06 0.06 0.05 0.05 0.06 0.06 0.06 0.06 0.06 0.09 0.11 0.10 0.08 0.07 0.05 0.03 0.01 0.00 0.00 0.01 0.02 0.06 0.12 0.25 0.43 0.43 0.32 0.25 0.22 0.19 0.12 0.08
0.01 0.00 0.00 0.01 0.01 0.01 0.01 0.02 0.04 0.05 0.05 0.05 0.05 0.04 0.04 0.05 0.06 0.06 0.07 0.08 0.12 0.15 0.13 0.08 0.05 0.03 0.01 0.00 0.00 0.01 0.02 0.03 0.06 0.17 0.45 0.63 0.72 0.60 0.32 0.23 0.17 0.18 0.22
0.01 0.00 0.00 0.01 0.01 0.01 0.01 0.01 0.02 0.03 0.03 0.04 0.04 0.04 0.04 0.04 0.05 0.07 0.11 0.14 0.15 0.15 0.15 0.12 0.07 0.04 0.01 0.00 0.00 0.01 0.01 0.03 0.09 0.23 0.56 0.94 1.02 0.66 0.42 0.31 0.24 0.22 0.27
0.01 0.00 0.00 0.01 0.02 0.01 0.01 0.01 0.01 0.02 0.03 0.04 0.04 0.04 0.05 0.05 0.06 0.09 0.17 0.22 0.21 0.18 0.21 0.20 0.16 0.10 0.04 0.02 0.01 0.01 0.01 0.03 0.11 0.29 0.60 1.22 1.06 0.62 0.46 0.36 0.31 0.29 0.31
0.02 0.00 0.00 0.02 0.03 0.02 0.01 0.01 0.02 0.03 0.04 0.06 0.06 0.06 0.06 0.06 0.07 0.13 0.21 0.23 0.23 0.22 0.23 0.20 0.14 0.07 0.05 0.05 0.03 0.03 0.03 0.04 0.09 0.24 0.53 1.05 0.82 0.45 0.34 0.26 0.24 0.25 0.29
0.02 0.01 0.00 0.02 0.03 0.02 0.01 0.02 0.03 0.04 0.06 0.07 0.07 0.07 0.05 0.05 0.07 0.12 0.17 0.21 0.23 0.20 0.15 0.12 0.09 0.08 0.09 0.09 0.07 0.07 0.07 0.05 0.06 0.16 0.37 0.52 0.41 0.24 0.14 0.11 0.09 0.10 0.12
0.02 0.01 0.01 0.02 0.02 0.02 0.02 0.02 0.03 0.04 0.05 0.05 0.05 0.04 0.03 0.05 0.07 0.11 0.15 0.20 0.21 0.14 0.09 0.09 0.07 0.06 0.06 0.06 0.05 0.03 0.03 0.02 0.04 0.09 0.25 0.24 0.14 0.10 0.07 0.05 0.03 0.03 0.04
0.07 0.04 0.04 0.05 0.02 0.01 0.01 0.01 0.01 0.02 0.02 0.02 0.02 0.02 0.04 0.08 0.09 0.12 0.11 0.12 0.12 0.08 0.05 0.03 0.02 0.01 0.01 0.01 0.01 0.01 0.01 0.01 0.02 0.05 0.08 0.11 0.10 0.06 0.04 0.04 0.02 0.02 0.02
0.19 0.18 0.16 0.11 0.03 0.01 0.01 0.01 0.00 0.00 0.00 0.01 0.02 0.03 0.07 0.12 0.13 0.14 0.09 0.09 0.06 0.03 0.01 0.01 0.00 0.00 0.00 0.00 0.00 0.00 0.00 0.00 0.02 0.04 0.07 0.11 0.13 0.07 0.05 0.04 0.03 0.02 0.01
0.25 0.26 0.08 0.06 0.01 0.00 0.00 0.00 0.00 0.00 0.00 0.01 0.05 0.04 0.09 0.16 0.19 0.15 0.11 0.06 0.03 0.01 0.01 0.01 0.00 0.00 0.00 0.00 0.00 0.00 0.00 0.00 0.02 0.04 0.08 0.11 0.12 0.10 0.07 0.05 0.03 0.02 0.02
0.07 0.05 0.03 0.02 0.00 0.00 0.00 0.00 0.00 0.01 0.01 0.02 0.03 0.05 0.10 0.11 0.08 0.08 0.10 0.07 0.04 0.02 0.03 0.02 0.01 0.00 0.00 0.00 0.00 0.00 0.00 0.01 0.01 0.03 0.07 0.11 0.10 0.11 0.10 0.07 0.04 0.03 0.02
0.08 0.03 0.01 0.01 0.01 0.00 0.00 0.00 0.01 0.01 0.01 0.02 0.02 0.02 0.07 0.11 0.11 0.09 0.12 0.11 0.09 0.08 0.06 0.05 0.03 0.01 0.01 0.01 0.01 0.01 0.01 0.01 0.02 0.02 0.04 0.07 0.08 0.10 0.10 0.08 0.06 0.05 0.04
0.17 0.07 0.03 0.01 0.00 0.00 0.00 0.00 0.00 0.00 0.01 0.01 0.01 0.02 0.04 0.07 0.07 0.08 0.08 0.09 0.07 0.07 0.07 0.05 0.03 0.03 0.03 0.03 0.02 0.01 0.01 0.03 0.03 0.03 0.05 0.09 0.10 0.09 0.11 0.10 0.09 0.09 0.08
0.22 0.09 0.05 0.02 0.01 0.01 0.01 0.00 0.00 0.00 0.02 0.02 0.03 0.03 0.03 0.05 0.08 0.09 0.11 0.12 0.11 0.09 0.09 0.07 0.07 0.07 0.06 0.04 0.04 0.04 0.04 0.05 0.05 0.05 0.04 0.06 0.08 0.08 0.11 0.11 0.13 0.13 0.14
0.29 0.14 0.10 0.05 0.03 0.02 0.01 0.01 0.01 0.02 0.04 0.05 0.06 0.05 0.04 0.05 0.10 0.13 0.16 0.17 0.16 0.15 0.14 0.13 0.13 0.10 0.09 0.07 0.06 0.06 0.07 0.08 0.08 0.08 0.09 0.10 0.10 0.11 0.12 0.12 0.12 0.13 0.14
0.34 0.26 0.18 0.08 0.06 0.04 0.02 0.01 0.01 0.03 0.05 0.07 0.09 0.09 0.07 0.09 0.14 0.20 0.26 0.30 0.31 0.30 0.29 0.29 0.25 0.20 0.17 0.16 0.14 0.12 0.10 0.11 0.11 0.10 0.10 0.10 0.09 0.09 0.10 0.11 0.10 0.11 0.11
0.33 0.26 0.18 0.14 0.10 0.07 0.06 0.06 0.06 0.07 0.10 0.12 0.15 0.17 0.18 0.24 0.34 0.45 0.55 0.56 0.53 0.49 0.47 0.42 0.37 0.34 0.30 0.26 0.20 0.17 0.15 0.14 0.14 0.12 0.11 0.10 0.09 0.08 0.07 0.09 0.09 0.11 0.12
0.42 0.34 0.27 0.19 0.14 0.17 0.20 0.19 0.20 0.23 0.29 0.36 0.42 0.50 0.59 0.71 0.78 0.84 0.84 0.79 0.70 0.66 0.62 0.57 0.51 0.43 0.35 0.28 0.20 0.15 0.12 0.11 0.10 0.09 0.08 0.07 0.06 0.05 0.04 0.03 0.04 0.06 0.08
0.60 0.47 0.34 0.27 0.29 0.37 0.44 0.51 0.69 0.78 0.88 1.08 1.23 1.35 1.42 1.42 1.36 1.30 1.23 1.13 0.99 0.88 0.73 0.58 0.48 0.39 0.31 0.25 0.20 0.15 0.10 0.07 0.05 0.05 0.04 0.03 0.03 0.02 0.02 0.02 0.01 0.01 0.04
0.63 0.59 0.55 0.61 0.66 0.73 0.95 1.24 1.54 1.75 1.94 2.13 2.27 2.31 2.22 2.04 1.87 1.71 1.54 1.35 1.17 1.00 0.81 0.61 0.46 0.37 0.29 0.23 0.20 0.16 0.10 0.05 0.03 0.02 0.02 0.01 0.01 0.01 0.01 0.01 0.01 0.01 0.02
0.61 0.68 0.72 0.90 1.10 1.29 1.61 1.97 2.33 2.69 2.84 2.82 2.65 2.52 2.37 2.19 2.00 1.77 1.55 1.39 1.21 0.98 0.78 0.57 0.41 0.32 0.24 0.18 0.14 0.13 0.10 0.06 0.03 0.01 0.01 0.01 0.01 0.01 0.02 0.02 0.01 0.01 0.01
0.51 0.62 0.77 1.01 1.40 1.86 2.40 2.87 3.15 3.33 3.30 3.13 2.84 2.54 2.24 1.98 1.80 1.60 1.42 1.24 1.00 0.76 0.58 0.42 0.31 0.23 0.17 0.13 0.09 0.08 0.07 0.06 0.06 0.04 0.02 0.01 0.01 0.01 0.02 0.01 0.01 0.01 0.01
0.60 0.81 1.05 1.37 1.88 2.40 2.88 3.25 3.42 3.40 3.24 2.97 2.60 2.21 1.79 1.54 1.41 1.27 1.08 0.89 0.70 0.53 0.40 0.30 0.23 0.17 0.13 0.10 0.08 0.07 0.06 0.05 0.05 0.06 0.04 0.02 0.01 0.01 0.01 0.01 0.01 0.03 0.02
0.73 1.00 1.28 1.58 2.01 2.43 2.72 2.98 2.99 2.94 2.77 2.42 2.01 1.64 1.35 1.15 0.96 0.83 0.70 0.59 0.47 0.34 0.26 0.22 0.17 0.13 0.10 0.08 0.06 0.05 0.06 0.06 0.05 0.05 0.05 0.03 0.02 0.01 0.01 0.01 0.01 0.01 0.01